Other Public Products
Issued by NWS Grand Forks, ND

Home | Current Version | Previous Version | Graphics & Text | Print | Product List | Glossary On
Versions: 1 2 3 4 5 6 7 8 9 10 11 12 13 14 15 16 17 18 19 20 21 22 23 24 25 26 27 28 29 30 31 32 33 34 35 36 37 38 39 40 41 42 43 44 45 46 47 48 49 50
000
FPUS83 KFGF 221910
OPUFGF
PRAIRIE TO PINES WEATHER ROUNDUP
NATIONAL WEATHER SERVICE EASTERN NORTH DAKOTA/GRAND FORKS ND
100 PM CST SAT NOV 22 2014

 **SATELLITE DATA USED TO AUGMENT SKY COVER AT AUTOMATED STATIONS**
 *****  WEATHER ACROSS EASTERN NORTH DAKOTA  *****

CITY           SKY/WX    TMP DP  RH WIND       PRES   REMARKS
GRAND FORKS    PTSUNNY   42  30  62 SE10      29.51F
GRAND FORKS AF CLOUDY    44  31  60 S8        29.50F HAZE
GRAND CITY NWS   N/A     41 N/A N/A SE7         N/A
BUXTON         NOT AVBL
DEVILS LAKE    CLOUDY    37  27  65 SE10      29.43F
FARGO          MOSUNNY   43  29  57 S8        29.53F
WAHPETON ARPT  MOCLDY    34  30  86 SE12      29.56F
$$

 *****  WEATHER ACROSS CENTRAL AND WESTERN NORTH DAKOTA  *****

CITY           SKY/WX    TMP DP  RH WIND       PRES   REMARKS
JAMESTOWN      PTSUNNY   43  28  55 S9        29.45F
BISMARCK       CLOUDY    43  29  57 SE6       29.40F
MINOT          CLOUDY    40  28  62 E10       29.34F
MINOT AFB      CLOUDY    37  33  85 SE12      29.33F
GARRISON         N/A     39  31  72 E6        29.34F
WILLISTON      CLOUDY    43  29  57 SW9       29.29F
DICKINSON      CLOUDY    41  28  60 SW6       29.33F
HETTINGER      CLOUDY    40  28  62 CALM      29.38F
$$

 *****  OTHER OBSERVATIONS NORTHEAST NORTH DAKOTA  *****

CITY           SKY/WX    TMP DP  RH WIND       PRES   REMARKS
WALHALLA         N/A     32  32 100 E6        29.52F FOG
LANGDON        FOG       34  32  93 SE10      29.48S VSB 1/2
CAVALIER       CLOUDY    32  28  86 SE6       29.52F
GRAFTON        CLOUDY    36  28  75 E7        29.51F
CANDO          CLOUDY    37  30  75 SE13      29.44F
FORT TOTTEN    NOT AVBL
ROLLA          CLOUDY    30  30 100 SE10      29.44F FOG     WCI  21
RUGBY          FAIR      39  32  75 E15       29.40F
 ***** THE ABOVE OBSERVATIONS ARE NON NWS ARE NOT QUALITY
        CONTROLLED AND MAY MIS-REPORT RAIN FOR SNOW...
$$

 *****  OTHER OBSERVATIONS SOUTHEAST NORTH DAKOTA *****

CITY           SKY/WX    TMP DP  RH WIND       PRES   REMARKS
COOPERSTOWN    NOT AVBL
VALLEY CITY    FAIR      39  28  65 SE10      29.48F
OAKES            N/A     37  32  81 S12       29.48F
GWINNER        CLEAR     43  32  65 SE9       29.50F
SHEYENNE NWR     N/A     42  29  59 SE7       29.95S
BUFFALO        NOT AVBL
WYNDMERE         N/A     39  30  70 SE7         N/A
 ***** THE ABOVE OBSERVATIONS ARE NON NWS ARE NOT QUALITY
       CONTROLLED AND MAY MIS-REPORT RAIN FOR SNOW...
$$

  *****  WEATHER ACROSS NORTHERN MINNESOTA  *****

CITY           SKY/WX    TMP DP  RH WIND       PRES   REMARKS
FLAG ISLAND    CLOUDY    30  27  86 CALM      29.57S
WARROAD        CLOUDY    32  28  86 NE7       29.57F FOG
ROSEAU         CLOUDY    36  30  80 E6        29.55F
HALLOCK          N/A     36  30  80 SE7       29.53F
THF RVR FALLS  SUNNY     34  27  75 SE7       29.55F
HALSTAD          N/A     41  28  61 S12         N/A
FOSSTON        SUNNY     39  28  65 S3        29.54F
BAUDETTE       CLOUDY    35  29  78 E5        29.56F
WASKISH        SUNNY     45  34  65 CALM      29.56F
CROOKSTON      SUNNY     36  30  80 S6        29.54F
$$
  *****  WEATHER ACROSS CENTRAL AND WEST MINNESOTA  *****

CITY           SKY/WX    TMP DP  RH WIND       PRES   REMARKS
BEMIDJI        SUNNY     39  29  69 SE5       29.55F
PARK RAPIDS    SUNNY     45  30  55 S10       29.56F
WADENA         SUNNY     43  30  61 S5        29.57F
DETROIT LAKES  SUNNY     41  32  70 S6        29.56F
MOORHEAD       MOSUNNY   41  32  70 SE9       29.54F
FERGUS FALLS   MOSUNNY   36  28  75 S10       29.59F
ELBOW LAKE       N/A     35  30  83 S12       29.57F
MORRIS MN      MOSUNNY   34  28  80 SE13      29.58F WCI  25
STAPLES        SUNNY     41  28  60 S7        29.59F
WHEATON        PTSUNNY   34  28  80 SE13      29.56F WCI  25
$$
  *****  WEATHER ELSEWHERE ACROSS MINNESOTA  *****

CITY           SKY/WX    TMP DP  RH WIND       PRES   REMARKS
DULUTH         CLOUDY    34  29  82 SW8       29.63F HAZE
INTRNTL FALLS  CLOUDY    37  29  72 VRB3      29.59S
ELY            CLOUDY    34  30  86 SW5       29.61S FOG
CLOQUET        CLOUDY    34  30  86 S6        29.64F FOG
BRAINERD       SUNNY     37  29  72 S10       29.62F
HIBBING        SUNNY     38  29  70 SE3       29.61F
ALEXANDRIA     MOSUNNY   39  29  67 S10       29.60F
SAINT CLOUD    CLOUDY    34  31  88 S12       29.65F FOG
MINNEAPOLIS    CLOUDY    35  33  92 S9        29.70F FOG
$$

  *****  WEATHER ACROSS SOUTH DAKOTA  *****

CITY           SKY/WX    TMP DP  RH WIND       PRES   REMARKS
SIOUX FALLS    PTSUNNY   40  35  83 S12       29.60F
BROOKINGS      NOT AVBL
WATERTOWN      PTSUNNY   32  29  88 S17       29.52F WCI  21
HURON          PTSUNNY   38  31  76 S13       29.49F
SISSETON         N/A     37  31  78 SE8       29.52F
ABERDEEN       PTSUNNY   36  30  79 S10       29.48F
MITCHELL       PTSUNNY   43  33  68 S14       29.53F
PIERRE         MOSUNNY   40  30  67 SE3       29.41F
MOBRIDGE       SUNNY     40  29  64 S9        29.38F
RAPID CITY     CLOUDY    55  26  32 W9        29.42F
$$

  *****  SOME WEATHER IN NEARBY STATES *****

CITY           SKY/WX    TMP DP  RH WIND       PRES   REMARKS
GLASGOW MT     PTSUNNY   42  32  67 SE5       29.21F
GREAT FALLS MT MOSUNNY   47  27  45 W25G33    29.31S
CHEYENNE WY    CLOUDY    49  12  22 SW10      29.65F
SCOTTSBLUFF NE CLOUDY    58  21  24 W14       29.58F
OMAHA NE       MOSUNNY   46  40  79 S12       29.76F
DES MOINES IA  MOSUNNY   55  44  66 SW18G24   29.79S
DAVENPORT IA   CLOUDY    51  46  83 SW14      29.85F
CHICAGO IL     CLOUDY    45  40  82 S13       29.89F
EAU CLAIRE WI  CLOUDY    36  34  92 SW9       29.73F
LA CROSSE WI   CLOUDY    39  36  89 S8        29.77F FOG
$$

  *****  SOME NATIONAL WEATHER *****

CITY           SKY/WX    TMP DP  RH WIND       PRES   REMARKS
LA GUARDIA NY  PTSUNNY   41  13  31 SW14      30.31F
RALEIGH NC     MOSUNNY   52  11  19 SW6       30.44F
ATLANTA GA     MOSUNNY   60  25  26 SE7       30.32F
NEW ORLEANS LA CLOUDY    67  58  72 E10       30.07F
OKLAHOMA CITY  LGT RAIN  56  53  90 S21G26    29.89F
ALBUQUERQUE NM MOSUNNY   50  21  32 SW8       30.05F
SALT LAKE CITY LGT RAIN  45  37  73 S25G37    29.81F
LOS ANGELES CA MOSUNNY   67  52  58 CALM      30.10F
BOISE ID       PTSUNNY   45  38  76 NW9       29.77R
SEATTLE WA     CLOUDY    45  41  87 S13G21    29.80R
$$

*** WEATHER ACROSS MANITOBA...SASKATCHEWAN AND ONTARIO ***
                ***ONTARIO***

CITY           SKY/WX    TMP DP  RH WIND       PRES   REMARKS
GERALDTON      LGT SNOW  30  28  93 W3        29.57R FOG
THUNDER BAY    CLOUDY    37  28  70 W5        29.62F
SIOUX LOOKOUT  CLOUDY    27  23  86 VRB2      29.60R
TORONTO        CLOUDY    36  34  93 SW8       29.95F
BIG TROUT LK   SUNNY      7   3  85 NW8       29.65S WCI  -6
PICKLE LAKE    FLURRIES  19  12  73 N3        29.59R
DRYDEN         CLOUDY    28  25  86 VRB2      29.58F
KENORA         FLURRIES  28  25  86 CALM      29.57F
$$
                *** MANITOBA***

CITY           SKY/WX    TMP DP  RH WIND       PRES   REMARKS
BRANDON        FRZ DRZL  27  25  93 E13       29.48F FOG     WCI  16
DAUPHIN        NOT AVBL
ISLAND LAKE    PTSUNNY    7   0  72 SE6       29.68S WCI  -3
PILOT MOUND      N/A     30  30 100 E14         N/A  WCI  20
THE PAS        CLOUDY     9   3  78 NE5       29.62F WCI   0
THOMPSON       CRYSTALS  -4  -9  77 SW3       29.73R
WINNIPEG       CLOUDY    28  21  74 E9        29.57F WCI  20
LYNN LAKE      CLOUDY    -2  -6  84 CALM      29.67S
CHURCHILL      CRYSTALS -11 -17  77 W13       29.72S WCI -32
GILLAM         MOSUNNY   -9 -17  70 NW3       29.74R
$$
                ***SASKATCHEWAN***

CITY           SKY/WX    TMP DP  RH WIND       PRES   REMARKS
ESTEVAN        CLOUDY    34  32  93 SE15G24   29.26F WCI  24
KINDERSLEY     LGT RAIN  32  32 100 E9        29.03F WCI  24
LLOYDMINSTER   LGT SNOW  23  21  93 E16G22    29.17S DRFTSNOWWCI  10
PRINCE ALBERT  LGT SNOW  21  18  86 E22       29.34F WCI   5
REGINA         CLOUDY    34  32  93 SE20G29   29.19F WCI  22


USA.gov is the U.S. government's official web portal to all federal, state and local government web resources and services.